Location: Haliburton Scout Reserve
(45.0900°N, 78.3200°W)
Time: 07:28:08
(UTC-04:00)

Tiros 1 despin weight - Pass Details

Date: 07 March 2024
Orbit: 579 x 622 km, 48.2° (Epoch: 23 April)

Event Time Altitude Azimuth Distance (km) Brightness Sun altitude
Exits shadow 05:42:34 - 218° (SW) 2,465 ? -10.9°
Reaches altitude 10° 05:43:59 10° 212° (SSW) 1,935 ? -10.6°
Maximum altitude 05:48:03 36° 146° (SE) 944 ? -9.9°
Drops below altitude 10° 05:52:05 10° 79° (E) 1,916 ? -9.2°
Sets 05:54:29 0° 71° (ENE) 2,813 ? -8.8°
